{"data":{"norad_id":69957,"intl_designator":"2026-157Q","name":"STARLINK-37919","alt_names":[],"object_type":"PAYLOAD","status":"ACTIVE","operator":null,"country":"US","launch_date":"2026-07-09","launch_site_code":"AFETR","launch_vehicle":null,"mission":null,"orbit_class":"UNKNOWN","rcs_meters":null,"size_class":null,"mass_kg":null,"dimensions":null,"purposes":["comms"],"wikipedia_slug":null,"has_3d_model":false,"image_url":null,"decayed_at":null,"tle_current":{"epoch":"2026-09-20T04:54:27.714816Z","epoch_age_seconds":43353,"freshness":"FRESH","line1":"1 69957U 26157Q   26263.20448744  .00001548  00000+0  56948-4 0  9992","line2":"2 69957  53.1596 335.3867 0001188  75.2901 284.8233 15.34403564 11326","mean_motion":15.34403564,"eccentricity":0.0001188,"inclination_deg":53.1596,"raan_deg":335.3867,"arg_perigee_deg":75.2901,"mean_anomaly_deg":284.8233,"bstar":5.6948e-5,"rev_number":1132,"period_min":93.847540098649,"perigee_km":461.87995670643,"apogee_km":463.50533783063,"semimajor_km":6840.8296472685,"source":"CELESTRAK","updated_at":"2026-09-20T09:00:44.301784Z"}}}